Weather in Chelmuzhi

Russia / Republic of Karelia     62°35′16″N   35°35′12″E
temp.,
°C
wind,
m/s
gust,
m/s
humid.,
%
clouds,
%
prec.,
mm/h
press.,
hPa
HPBL,
m
16 may, sun
sun1600:00+9ne667963 0.0 100534
03:00+8ne5689100 0.1 100328
06:00+7nne4495100 0.2 100322
09:00+7n3398100 0.8 100422
12:00+8nnw22100100 0.6 100619
15:00+8nnw3399100 1.7 100724
18:00+8sw22100100 3.4 100811
21:00+8w22100100 4.6 100912
17 may, mon
mon1700:00+7w23100100 0.4 101112
03:00+7sw11100100 1.3 101211
06:00+7ssw2310096 0.1 101417
09:00+7s339996 0.1 101630
12:00+10s44885 0.0 101743
15:00+11s44775 0.0 101651
18:00+12sse3376100 0.0 101535
21:00+12ese4483100 0.0 101514
18 may, tue
tue1800:00+10ese4489100 0.0 101521
03:00+8ese4499100 0.0 101518
06:00+8ese5598100 0.0 101426
09:00+10ese5590100 0.0 101232
12:00+12ese5682100 0.0 101154
15:00+15se666652 0.0 100982
18:00+15sse676647 0.0 100780
21:00+14sse786895 0.0 100768
19 may, wed
wed1900:00+12sse6776100 0.1 100749
03:00+11sse6786100 0.1 100741
06:00+10sse5591100 0.0 100727
09:00+11s6687100 0.0 100735
12:00+13s6780100 0.0 100745
15:00+14s79715 0.0 100684
18:00+16sse813596 0.0 1005145
21:00+9se2210042 2.9 100714
20 may, thu
thu2000:00+10se5510067 2.1 100723
03:00+8se3310054 2.3 100714
06:00+8se3310096 0.0 100619
09:00+10sse449996 0.1 100636
12:00+12ssw5583100 0.1 100544
15:00+11sse55955 1.3 100464
18:00+12s5697100 6.3 100145
21:00+11sse6910056 22.8 100160